User: anonymous   Login
Location: *
(41.7492°S, 135.4150°W)
Time: 06:07:35
(UTC+00:00)
Language:

LO-87 - Orbit

View from above orbital plane
View from above orbital plane
View from above satellite
View from above satellite

Ground track
Ground track

The orbit data is extracted from the following two-line orbital elements,

1 41557U 16033B   22178.88094087  .00009991  00000-0  29681-3 0  9996
2 41557  97.3887 276.5963 0009961 348.6531 120.7752 15.34927513338984
Epoch (UTC): 27 June 2022 21:08:33
Eccentricity: 0.0009961
inclination: 97.3887°
perigee height: 454 km
apogee height: 468 km
right ascension of ascending node: 276.5963°
argument of perigee: 348.6531°
revolutions per day: 15.34927513
mean anomaly at epoch: 120.7752°
orbit number at epoch: 33898

The dashed part of the orbit path shows where the satellite is in the earth's shadow,  

DLR